EW2202 Weather Reports


Display with metric or nautical units.
time (UTC)temp
F
wind
direction
speed
MPH
gust
MPH
rain 1hr
in
rain 24hr
in
rain mn
in
humidity
%
barometer
mb
20200406030510 43 302 6.0 1.0 0.00 0.00 0.00 78 1019.0
20200406030011 43 300 6.0 1.0 0.00 0.00 0.00 78 1019.0
20200406025511 43 313 3.0 1.0 0.00 0.00 0.00 78 1019.0
20200406025011 43 304 6.0 1.0 0.00 0.00 0.00 78 1019.1
20200406024511 43 304 5.0 1.0 0.00 0.00 0.00 78 1019.0
20200406024010 43 318 5.0 1.0 0.00 0.00 0.00 78 1019.0
20200406023510 43 296 7.0 1.0 0.00 0.00 0.00 78 1019.1
20200406023010 44 288 5.0 1.0 0.00 0.00 0.00 78 1019.0
20200406022510 44 306 4.0 1.0 0.00 0.00 0.00 78 1019.0
20200406022011 44 302 5.0 1.0 0.00 0.00 0.00 78 1018.9
20200406021511 44 295 5.0 1.0 0.00 0.00 0.00 78 1019.0
20200406021011 44 308 6.0 1.0 0.00 0.00 0.00 78 1019.0
20200406020511 44 304 3.0 1.0 0.00 0.00 0.00 77 1018.9
20200406020011 44 302 6.0 1.0 0.00 0.00 0.00 77 1018.9
20200406015511 44 313 5.0 1.0 0.00 0.00 0.00 77 1019.0
20200406015011 44 290 4.0 1.0 0.00 0.00 0.00 77 1019.0
20200406014511 44 308 3.0 1.0 0.00 0.00 0.00 77 1019.0
20200406014010 45 299 6.0 1.0 0.00 0.00 0.00 77 1019.0
20200406013510 45 304 3.0 1.0 0.00 0.00 0.00 76 1018.9
20200406013010 45 304 6.0 1.0 0.00 0.00 0.00 76 1018.9
20200406012510 45 305 8.0 1.0 0.00 0.00 0.00 76 1018.9
20200406012010 45 346 9.0 1.0 0.00 0.00 0.00 76 1018.8
20200406011510 45 298 3.0 1.0 0.00 0.00 0.00 76 1018.8
20200406011010 45 309 5.0 1.0 0.00 0.00 0.00 76 1018.7
20200406010510 45 305 10.0 1.0 0.00 0.00 0.00 76 1018.7
20200406010010 45 321 6.0 1.0 0.00 0.00 0.00 75 1018.7
20200406005510 45 301 4.0 1.0 0.00 0.00 0.00 75 1018.6
20200406005010 46 294 10.0 1.0 0.00 0.00 0.00 75 1018.6
20200406004511 46 313 7.0 1.0 0.00 0.00 0.00 75 1018.5
20200406004011 46 308 6.0 1.0 0.00 0.00 0.00 75 1018.6
20200406003511 46 309 5.0 1.0 0.00 0.00 0.00 75 1018.6
20200406003011 46 284 7.0 1.0 0.00 0.00 0.00 75 1018.5
20200406002511 46 313 7.0 1.0 0.00 0.00 0.00 75 1018.5
20200406002011 46 315 3.0 1.0 0.00 0.00 0.00 74 1018.5
20200406001511 46 311 4.0 1.0 0.00 0.00 0.00 74 1018.4
20200406001011 46 308 4.0 1.0 0.00 0.00 0.00 74 1018.4
20200406000511 46 284 8.0 1.0 0.00 0.00 0.00 74 1018.4
20200406000011 47 310 6.0 1.0 0.00 0.00 0.00 74 1018.3
20200405235511 47 305 9.0 2.0 0.00 0.00 0.00 74 1018.3
20200405235011 47 309 9.0 2.0 0.00 0.00 0.00 74 1018.3
20200405234511 47 283 8.0 1.0 0.00 0.00 0.00 74 1018.3
20200405234010 47 291 6.0 1.0 0.00 0.00 0.00 74 1018.3
20200405233510 47 315 10.0 1.0 0.00 0.00 0.00 74 1018.3
20200405233010 47 313 6.0 1.0 0.00 0.00 0.00 74 1018.3
20200405232510 47 311 6.0 1.0 0.00 0.00 0.00 74 1018.2
20200405232010 47 315 10.0 2.0 0.00 0.00 0.00 74 1018.3
20200405231510 47 322 14.0 2.0 0.00 0.00 0.00 74 1018.2
20200405231010 47 306 8.0 2.0 0.00 0.00 0.00 74 1018.3
20200405230511 48 321 8.0 1.0 0.00 0.00 0.00 75 1018.3
20200405230011 48 330 8.0 1.0 0.00 0.00 0.00 75 1018.2
20200405225511 48 324 10.0 1.0 0.00 0.00 0.00 75 1018.2
20200405225011 48 314 7.0 1.0 0.00 0.00 0.00 75 1018.2
20200405224511 48 340 7.0 1.0 0.00 0.00 0.00 75 1018.1
20200405224010 48 317 9.0 1.0 0.00 0.00 0.00 75 1018.1
20200405223511 48 327 5.0 1.0 0.00 0.00 0.00 75 1018.1
20200405223011 48 340 6.0 2.0 0.00 0.00 0.00 74 1018.0
20200405222510 48 329 8.0 2.0 0.00 0.00 0.00 74 1018.0
20200405222011 48 336 11.0 1.0 0.00 0.00 0.00 74 1017.9
20200405221510 48 340 5.0 2.0 0.00 0.00 0.00 74 1017.9
20200405221010 48 319 10.0 1.0 0.00 0.00 0.00 74 1017.8
20200405220511 48 309 9.0 1.0 0.00 0.00 0.00 74 1017.8
20200405220011 48 347 7.0 1.0 0.00 0.00 0.00 75 1017.8
20200405215510 48 309 10.0 1.0 0.00 0.00 0.00 75 1017.8
20200405215011 48 329 13.0 1.0 0.00 0.00 0.00 75 1017.8
20200405214510 48 337 8.0 1.0 0.00 0.00 0.00 75 1017.7
20200405214011 48 309 7.0 2.0 0.00 0.00 0.00 75 1017.7
20200405213511 48 318 4.0 2.0 0.00 0.00 0.00 75 1017.7
20200405213010 48 330 11.0 2.0 0.00 0.00 0.00 75 1017.7
20200405212511 48 327 9.0 2.0 0.00 0.00 0.00 75 1017.7
20200405212010 48 334 12.0 2.0 0.00 0.00 0.00 75 1017.6
20200405211511 48 317 9.0 2.0 0.00 0.00 0.00 76 1017.7
20200405211011 48 320 10.0 2.0 0.00 0.00 0.00 76 1017.7
20200405210511 48 319 8.0 2.0 0.00 0.00 0.00 76 1017.7
20200405210012 48 319 8.0 2.0 0.00 0.00 0.00 76 1017.6
20200405205511 48 355 9.0 2.0 0.00 0.00 0.00 76 1017.6
20200405205010 48 335 12.0 2.0 0.00 0.00 0.00 76 1017.5
20200405204510 48 336 7.0 2.0 0.00 0.00 0.00 76 1017.6
20200405204011 48 341 6.0 2.0 0.00 0.00 0.00 77 1017.6
20200405203511 48 333 10.0 2.0 0.00 0.00 0.00 77 1017.6
20200405203011 48 355 12.0 2.0 0.00 0.00 0.00 77 1017.5
20200405202511 48 350 12.0 2.0 0.00 0.00 0.00 77 1017.5
20200405202010 48 344 9.0 2.0 0.00 0.00 0.00 78 1017.6
20200405201510 47 317 10.0 2.0 0.00 0.00 0.00 79 1017.6
20200405201011 46 314 13.0 2.0 0.00 0.00 0.00 80 1017.6
20200405200510 46 300 8.0 2.0 0.00 0.00 0.00 80 1017.5
20200405200010 46 323 9.0 2.0 0.00 0.00 0.00 80 1017.6
20200405195510 46 321 9.0 2.0 0.00 0.00 0.00 80 1017.6
20200405195010 46 334 13.0 2.0 0.00 0.00 0.00 80 1017.6
20200405194510 46 323 12.0 2.0 0.00 0.00 0.00 80 1017.5
20200405194010 46 340 9.0 2.0 0.00 0.00 0.00 80 1017.6
20200405193510 46 345 13.0 2.0 0.00 0.00 0.00 80 1017.6
20200405193010 46 351 10.0 1.0 0.00 0.00 0.00 80 1017.5
20200405192510 46 317 11.0 2.0 0.00 0.00 0.00 80 1017.6
20200405192010 46 324 4.0 2.0 0.00 0.00 0.00 80 1017.5
20200405191511 46 360 8.0 2.0 0.00 0.00 0.00 80 1017.5
20200405191011 46 334 12.0 2.0 0.00 0.00 0.00 80 1017.5
20200405190511 46 341 8.0 2.0 0.00 0.00 0.00 80 1017.5
20200405190011 46 326 12.0 2.0 0.00 0.00 0.00 80 1017.5
20200405185511 46 322 6.0 2.0 0.00 0.00 0.00 80 1017.5
20200405185011 46 317 14.0 2.0 0.00 0.00 0.00 80 1017.6
20200405184511 47 337 14.0 2.0 0.00 0.00 0.00 79 1017.5
20200405184011 47 305 9.0 2.0 0.00 0.00 0.00 80 1017.5
20200405183511 47 310 9.0 2.0 0.00 0.00 0.00 79 1017.6
20200405183011 47 330 14.0 2.0 0.00 0.00 0.00 79 1017.6
20200405182511 47 360 6.0 2.0 0.00 0.00 0.00 79 1017.5
20200405182011 47 308 9.0 2.0 0.00 0.00 0.00 80 1017.5
20200405181511 47 344 10.0 2.0 0.00 0.00 0.00 80 1017.5
20200405181011 47 333 12.0 2.0 0.00 0.00 0.00 80 1017.5
20200405180511 47 340 12.0 2.0 0.00 0.00 0.00 80 1017.6
20200405180011 47 312 8.0 2.0 0.00 0.00 0.00 80 1017.6
20200405175511 47 336 10.0 2.0 0.00 0.01 0.00 80 1017.6
20200405175011 47 323 10.0 2.0 0.00 0.01 0.00 79 1017.6
20200405174511 47 319 7.0 2.0 0.00 0.01 0.00 80 1017.5
20200405174011 47 337 13.0 2.0 0.00 0.01 0.00 81 1017.6
20200405173511 46 321 8.0 2.0 0.00 0.01 0.00 81 1017.6
20200405173011 46 317 11.0 2.0 0.00 0.01 0.00 81 1017.5
20200405172510 46 314 13.0 2.0 0.00 0.01 0.00 82 1017.7
20200405172011 46 350 10.0 2.0 0.00 0.01 0.00 82 1017.7
20200405171511 46 319 10.0 2.0 0.00 0.01 0.00 82 1017.8
20200405171010 46 313 10.0 2.0 0.00 0.01 0.00 83 1017.7
20200405170510 47 314 9.0 1.0 0.00 0.01 0.00 83 1017.7
20200405170010 47 355 8.0 1.0 0.00 0.01 0.00 84 1017.7
20200405165510 47 325 9.0 1.0 0.00 0.01 0.00 83 1017.7
20200405165010 47 355 4.0 1.0 0.00 0.01 0.00 84 1017.7
20200405164511 47 360 11.0 1.0 0.00 0.01 0.00 84 1017.7
20200405164011 48 342 6.0 1.0 0.00 0.01 0.00 83 1017.6
20200405163511 48 326 7.0 1.0 0.00 0.01 0.00 84 1017.5
20200405163011 48 355 6.0 1.0 0.00 0.01 0.00 84 1017.6
20200405162511 48 340 7.0 1.0 0.00 0.01 0.00 84 1017.5
20200405162011 48 329 6.0 1.0 0.00 0.01 0.00 85 1017.5
20200405161511 48 319 7.0 1.0 0.00 0.01 0.00 86 1017.4
20200405161011 48 336 9.0 1.0 0.00 0.01 0.00 86 1017.4
20200405160510 48 321 6.0 1.0 0.00 0.01 0.00 86 1017.4
20200405160010 47 323 5.0 1.0 0.00 0.01 0.00 86 1017.5
20200405155510 47 327 8.0 1.0 0.00 0.01 0.00 87 1017.4
20200405155010 47 333 4.0 1.0 0.00 0.01 0.00 87 1017.4
20200405154511 47 317 10.0 1.0 0.00 0.01 0.00 87 1017.4
20200405154010 47 326 10.0 1.0 0.00 0.01 0.00 87 1017.4
20200405153510 47 313 8.0 1.0 0.00 0.01 0.00 87 1017.4
20200405153010 47 316 6.0 1.0 0.00 0.01 0.00 87 1017.4
20200405152510 47 344 8.0 1.0 0.00 0.01 0.00 88 1017.5
20200405152010 47 321 11.0 1.0 0.00 0.01 0.00 88 1017.5
20200405151510 47 315 10.0 1.0 0.00 0.01 0.00 88 1017.4
20200405151010 47 338 9.0 1.0 0.00 0.01 0.00 88 1017.4
20200405150510 47 329 8.0 1.0 0.00 0.01 0.00 89 1017.3
20200405150011 47 317 8.0 1.0 0.00 0.01 0.00 89 1017.4
20200405145511 47 325 9.0 1.0 0.00 0.01 0.00 89 1017.3
20200405145011 47 338 11.0 1.0 0.00 0.01 0.00 88 1017.3
20200405144511 47 340 7.0 1.0 0.00 0.01 0.00 88 1017.2
20200405144011 47 327 11.0 2.0 0.00 0.01 0.00 88 1017.3
20200405143511 48 337 13.0 2.0 0.00 0.01 0.00 87 1017.3
20200405143011 48 322 9.0 1.0 0.00 0.01 0.00 87 1017.2
20200405142511 48 337 9.0 1.0 0.00 0.01 0.00 87 1017.2
20200405142011 48 302 11.0 1.0 0.00 0.01 0.00 88 1017.0
20200405141511 48 304 11.0 2.0 0.00 0.01 0.00 88 1017.1
20200405141011 48 324 8.0 2.0 0.00 0.01 0.00 88 1017.0
20200405140511 48 335 8.0 1.0 0.00 0.01 0.00 89 1017.0
20200405140011 48 319 6.0 1.0 0.00 0.01 0.00 89 1017.0
20200405135511 48 297 5.0 1.0 0.00 0.01 0.00 90 1016.9
20200405135011 47 294 2.0 1.0 0.00 0.01 0.00 91 1016.8
20200405134511 47 302 2.0 1.0 0.00 0.01 0.00 91 1016.7
20200405134011 47 252 4.0 1.0 0.00 0.01 0.00 92 1016.7
20200405133511 47 288 1.0 1.0 0.00 0.01 0.00 92 1016.7
20200405133010 46 286 4.0 1.0 0.00 0.01 0.00 92 1016.6
20200405132511 46 259 1.0 1.0 0.00 0.01 0.00 93 1016.6
20200405132011 46 269 3.0 1.0 0.00 0.01 0.00 93 1016.7
20200405131511 46 262 2.0 1.0 0.00 0.01 0.00 93 1016.7
20200405131010 46 242 2.0 1.0 0.00 0.01 0.00 93 1016.6
20200405130510 46 271 2.0 1.0 0.00 0.01 0.00 94 1016.7
20200405130010 46 275 2.0 0.0 0.00 0.01 0.00 93 1016.6
20200405125510 46 244 1.0 0.0 0.00 0.01 0.00 94 1016.5
20200405125010 46 242 2.0 0.0 0.00 0.01 0.00 94 1016.5
20200405124510 45 272 1.0 0.0 0.00 0.01 0.00 94 1016.4
20200405124010 45 234 0.0 0.0 0.00 0.01 0.00 94 1016.3
20200405123510 45 236 1.0 0.0 0.00 0.01 0.00 94 1016.4
20200405123010 45 249 2.0 0.0 0.00 0.01 0.00 94 1016.6
20200405122510 45 254 3.0 0.0 0.00 0.01 0.00 94 1016.6
20200405122010 45 232 1.0 0.0 0.00 0.01 0.00 94 1016.5
20200405121510 45 225 2.0 1.0 0.00 0.01 0.00 94 1016.4
20200405121010 45 223 3.0 1.0 0.00 0.01 0.00 94 1016.4
20200405120511 45 228 2.0 1.0 0.00 0.01 0.00 94 1016.4
20200405120010 45 207 5.0 1.0 0.00 0.01 0.00 94 1016.5
20200405115510 45 226 3.0 1.0 0.00 0.01 0.00 94 1016.5
20200405115011 45 221 2.0 1.0 0.00 0.01 0.00 94 1016.4
20200405114511 45 215 5.0 1.0 0.00 0.01 0.00 94 1016.4
20200405114011 45 227 2.0 1.0 0.00 0.01 0.00 94 1016.3
20200405113511 45 221 3.0 0.0 0.00 0.01 0.00 94 1016.2
20200405113011 45 216 3.0 1.0 0.00 0.01 0.00 94 1016.2
20200405112511 45 219 3.0 1.0 0.00 0.01 0.00 94 1016.1
20200405112011 45 224 4.0 1.0 0.00 0.01 0.00 94 1016.1
20200405111511 45 226 3.0 1.0 0.00 0.01 0.00 93 1016.0
20200405111011 45 223 2.0 0.0 0.00 0.01 0.00 93 1016.0
20200405110510 45 225 3.0 0.0 0.00 0.01 0.00 93 1015.9
20200405110011 45 224 4.0 1.0 0.00 0.01 0.00 93 1016.0
20200405105510 45 232 2.0 1.0 0.00 0.03 0.00 93 1015.9
20200405105010 45 235 3.0 0.0 0.00 0.03 0.00 93 1015.9
20200405104511 45 243 2.0 0.0 0.00 0.03 0.00 93 1015.9
20200405104011 45 238 1.0 0.0 0.00 0.03 0.00 93 1015.8
20200405103510 45 246 2.0 0.0 0.00 0.03 0.00 93 1015.8
20200405103010 45 261 1.0 0.0 0.00 0.03 0.00 93 1015.8
20200405102510 45 263 2.0 0.0 0.00 0.03 0.00 93 1015.6
20200405102010 45 264 0.0 0.0 0.00 0.03 0.00 93 1015.6
20200405101510 45 264 0.0 0.0 0.00 0.03 0.00 93 1015.5
20200405101010 45 264 0.0 0.0 0.00 0.03 0.00 93 1015.4
20200405100510 45 264 2.0 0.0 0.00 0.03 0.00 93 1015.5
20200405100010 45 264 1.0 0.0 0.00 0.05 0.00 93 1015.6
20200405095510 45 273 1.0 0.0 0.00 0.05 0.00 93 1015.6
20200405095010 45 286 2.0 0.0 0.00 0.05 0.00 93 1015.4
20200405094510 45 331 1.0 0.0 0.00 0.05 0.00 93 1015.4
20200405094010 45 331 1.0 0.0 0.00 0.05 0.00 93 1015.4
20200405093510 45 331 1.0 0.0 0.00 0.05 0.00 93 1015.4
20200405093010 45 331 0.0 0.0 0.00 0.05 0.00 93 1015.4
20200405092511 45 331 0.0 0.0 0.00 0.05 0.00 93 1015.4
20200405092011 45 331 1.0 0.0 0.00 0.05 0.00 92 1015.4
20200405091514 45 331 2.0 0.0 0.00 0.05 0.00 92 1015.4
20200405091011 45 331 1.0 0.0 0.00 0.05 0.00 92 1015.4
20200405090511 45 332 0.0 0.0 0.00 0.05 0.00 92 1015.4
20200405090014 45 332 2.0 0.0 0.00 0.05 0.00 93 1015.4
20200405085510 46 325 3.0 0.0 0.00 0.09 0.00 93 1015.4
20200405085010 46 324 4.0 0.0 0.00 0.09 0.00 93 1015.4
20200405084510 46 317 1.0 0.0 0.00 0.09 0.00 93 1015.4
20200405084010 46 317 1.0 1.0 0.00 0.09 0.00 93 1015.5
20200405083510 46 317 2.0 1.0 0.00 0.09 0.00 93 1015.5
20200405083011 45 325 4.0 1.0 0.00 0.09 0.00 93 1015.5
20200405082511 45 317 4.0 1.0 0.00 0.09 0.00 93 1015.4
20200405082011 45 333 5.0 1.0 0.00 0.09 0.00 92 1015.3
20200405081510 45 227 3.0 1.0 0.00 0.09 0.00 92 1015.2
20200405081011 45 235 2.0 1.0 0.00 0.09 0.00 92 1015.3
20200405080511 45 234 3.0 1.0 0.00 0.09 0.00 92 1015.4
20200405080010 45 228 3.0 1.0 0.00 0.14 0.00 92 1015.4
20200405075510 45 231 3.0 1.0 0.00 0.14 0.00 92 1015.4
20200405075010 45 233 4.0 1.0 0.00 0.14 0.00 92 1015.4
20200405074511 46 225 4.0 1.0 0.00 0.14 0.00 92 1015.4
20200405074011 46 232 3.0 1.0 0.00 0.14 0.00 92 1015.4
20200405073510 46 226 2.0 1.0 0.00 0.14 0.00 92 1015.4
20200405073010 46 225 2.0 1.0 0.00 0.14 0.00 92 1015.3
20200405072510 46 227 4.0 1.0 0.00 0.14 0.00 92 1015.3
20200405072010 46 215 2.0 1.0 0.00 0.14 0.00 92 1015.4
20200405071511 46 222 5.0 1.0 0.00 0.14 0.00 92 1015.4
20200405071011 46 207 2.0 1.0 0.00 0.14 0.00 92 1015.3
20200405070511 46 200 2.0 1.0 0.00 0.14 0.00 92 1015.4
20200405070011 46 211 5.0 1.0 0.00 0.14 0.00 92 1015.4
20200405065511 46 202 4.0 1.0 0.00 0.19 0.00 92 1015.4
20200405065011 46 209 3.0 1.0 0.00 0.19 0.00 92 1015.3
20200405064511 46 211 6.0 1.0 0.00 0.19 0.00 92 1015.3
20200405064011 46 208 3.0 1.0 0.00 0.19 0.00 92 1015.3
20200405063511 46 206 3.0 1.0 0.00 0.19 0.00 92 1015.4
20200405063011 46 218 3.0 1.0 0.00 0.19 0.00 92 1015.5
20200405062511 46 205 4.0 1.0 0.00 0.19 0.00 92 1015.4
20200405062010 46 200 5.0 1.0 0.00 0.19 0.00 92 1015.4
20200405061511 46 205 4.0 1.0 0.00 0.19 0.00 92 1015.5
20200405061011 46 198 6.0 1.0 0.00 0.19 0.00 92 1015.5
20200405060511 46 205 4.0 1.0 0.00 0.19 0.00 92 1015.6
20200405060010 46 213 6.0 1.0 0.00 0.19 0.00 91 1015.6
20200405055510 46 204 6.0 1.0 0.00 0.25 0.00 91 1015.7
20200405055010 46 208 6.0 1.0 0.00 0.25 0.00 91 1015.7
20200405054510 46 207 7.0 1.0 0.00 0.25 0.00 91 1015.7
20200405054011 46 205 7.0 1.0 0.00 0.25 0.00 91 1015.7
20200405053510 46 209 7.0 1.0 0.00 0.25 0.00 91 1015.7
20200405053010 46 200 4.0 1.0 0.00 0.25 0.00 91 1015.8
20200405052510 46 209 5.0 1.0 0.00 0.25 0.00 91 1015.7
20200405052010 46 208 7.0 1.0 0.00 0.25 0.00 91 1015.7
20200405051510 46 205 6.0 1.0 0.00 0.25 0.00 92 1015.6
20200405051010 46 211 7.0 1.0 0.00 0.25 0.00 92 1015.6
20200405050510 46 207 7.0 1.0 0.00 0.25 0.00 92 1015.6
20200405050010 46 208 6.0 1.0 0.00 0.25 0.00 92 1015.6
20200405045511 46 203 4.0 1.0 0.00 0.32 0.00 92 1015.7
20200405045010 46 195 7.0 1.0 0.00 0.32 0.00 92 1015.8
20200405044511 46 213 7.0 1.0 0.00 0.32 0.00 92 1015.8
20200405044011 46 201 6.0 1.0 0.00 0.32 0.00 92 1015.8
20200405043511 46 209 8.0 1.0 0.00 0.32 0.00 92 1015.7
20200405043011 46 201 4.0 1.0 0.00 0.32 0.00 91 1015.8
20200405042510 46 214 4.0 1.0 0.00 0.32 0.00 91 1015.8
20200405042010 46 204 7.0 1.0 0.00 0.32 0.00 91 1015.9
20200405041510 46 202 7.0 1.0 0.00 0.32 0.00 91 1015.9
20200405041011 46 187 3.0 1.0 0.00 0.32 0.00 91 1015.9
20200405040510 46 200 5.0 1.0 0.00 0.32 0.00 91 1015.9
20200405040010 46 219 6.0 1.0 0.00 0.32 0.00 91 1016.0
20200405035510 46 200 4.0 1.0 0.00 0.40 0.32 91 1016.1
20200405035010 46 205 7.0 1.0 0.00 0.40 0.32 91 1016.1
20200405034510 46 211 5.0 1.0 0.00 0.40 0.32 91 1016.1
20200405034010 46 205 5.0 1.0 0.00 0.40 0.32 91 1016.0
20200405033510 46 192 6.0 1.0 0.00 0.40 0.32 91 1016.0
20200405033010 46 209 5.0 1.0 0.00 0.40 0.32 92 1016.1
20200405032511 46 207 5.0 1.0 0.00 0.40 0.32 92 1016.1
20200405032011 46 211 5.0 1.0 0.00 0.40 0.32 92 1016.1
20200405031511 46 201 5.0 1.0 0.00 0.40 0.32 92 1016.0
20200405031011 46 207 5.0 1.0 0.00 0.40 0.32 92 1016.1